Location: *
(37.9500°N, 27.3666°E)
Time: 16:14:56
(UTC+00:00)

Envisat - Visible Passes

Search period start: 19 April 2024 00:00
Search period end: 29 April 2024 00:00
Orbit: 762 x 764 km, 98.3° (Epoch: 19 April)

Date Brightness Start Highest point End Pass type
(mag) Time Alt. Az. Time Alt. Az. Time Alt. Az.
19 Apr 3.3 01:18:46 10° NNE 01:23:49 64° E 01:26:03 33° S visible
19 Apr 4.8 02:59:31 10° NNW 03:02:12 15° WNW 03:04:53 10° W visible
20 Apr 4.7 00:42:03 10° NE 00:46:20 27° E 00:48:23 21° SE visible
20 Apr 3.8 02:20:49 10° N 02:25:16 32° WNW 02:28:33 16° WSW visible
21 Apr 5.6 00:07:09 10° ENE 00:08:40 11° E 00:10:11 10° ESE visible
21 Apr 2.9 01:43:03 10° N 01:48:07 73° WNW 01:50:53 27° SSW visible
22 Apr 3.8 01:05:53 10° NNE 01:10:47 48° E 01:13:13 27° SSE visible
22 Apr 4.5 02:45:51 10° NNW 02:49:22 19° WNW 02:52:50 10° WSW visible
23 Apr 5.1 00:29:30 10° NE 00:33:15 20° E 00:35:32 15° SE visible
23 Apr 3.5 02:07:35 10° N 02:12:21 42° WNW 02:15:42 18° SW visible
24 Apr 3.0 01:30:03 10° NNE 01:35:08 84° ESE 01:38:01 26° S visible
25 Apr 4.3 00:53:04 10° NNE 00:57:43 35° E 01:00:20 22° SSE visible
25 Apr 4.2 02:32:25 10° NNW 02:36:28 25° WNW 02:40:30 10° WSW visible
26 Apr 5.4 00:17:12 10° ENE 00:20:07 15° E 00:22:39 11° ESE visible
26 Apr 3.1 01:54:26 10° N 01:59:24 56° WNW 02:02:48 20° SW visible
27 Apr 3.3 01:17:04 10° NNE 01:22:07 63° ESE 01:25:08 24° S visible
28 Apr 4.7 00:40:22 10° NE 00:44:38 27° E 00:47:26 17° SE visible
28 Apr 3.8 02:19:06 10° N 02:23:34 32° WNW 02:27:36 12° SW visible
